EW5466 Weather Reports


Display with metric or nautical units.
time (UTC)temp
F
wind
direction
speed
MPH
gust
MPH
rain 1hr
in
rain 24hr
in
rain mn
in
humidity
%
barometer
mb
20260506003323 47 127 6.0 7.0 0.00 0.01 0.01 78 1007.0
20260506002817 47 134 6.0 7.0 0.00 0.01 0.01 78 1007.0
20260506002307 47 129 5.0 7.0 0.00 0.01 0.01 78 1007.0
20260506002040 47 134 5.0 6.0 0.00 0.01 0.01 78 1007.0
20260506001255 47 139 4.0 6.0 0.00 0.01 0.01 77 1007.0
20260506001019 47 156 5.0 7.0 0.00 0.01 0.01 77 1007.0
20260506000247 47 163 5.0 7.0 0.00 0.01 0.01 77 1007.0
20260506000000 47 165 5.0 7.0 0.00 0.01 0.01 76 1007.0
20260505235451 48 152 6.0 8.0 0.00 0.01 0.01 76 1007.0
20260505234724 48 156 6.0 8.0 0.00 0.01 0.01 76 1007.0
20260505234440 48 159 6.0 8.0 0.00 0.01 0.01 75 1006.9
20260505233713 48 159 5.0 7.0 0.00 0.01 0.01 75 1006.9
20260505233212 49 156 5.0 7.0 0.00 0.01 0.01 74 1006.9
20260505232925 49 145 5.0 7.0 0.00 0.01 0.01 74 1006.5
20260505232422 49 145 6.0 8.0 0.00 0.01 0.01 74 1006.5
20260505231653 49 148 6.0 8.0 0.00 0.01 0.01 73 1006.5
20260505231143 49 162 4.0 7.0 0.00 0.01 0.01 73 1006.7
20260505230642 49 167 4.0 5.0 0.00 0.01 0.01 73 1006.7
20260505230130 49 176 4.0 6.0 0.00 0.01 0.01 72 1006.8
20260505225836 49 150 5.0 7.0 0.00 0.01 0.01 72 1006.8
20260505225111 50 142 5.0 7.0 0.00 0.01 0.01 71 1006.8
20260505224829 50 153 5.0 6.0 0.00 0.01 0.01 72 1006.9
20260505224055 50 155 4.0 6.0 0.00 0.01 0.01 70 1006.9
20260505223554 50 168 2.0 6.0 0.00 0.01 0.01 71 1006.9
20260505223043 50 148 3.0 5.0 0.00 0.01 0.01 69 1007.0
20260505222540 50 205 3.0 5.0 0.00 0.01 0.01 70 1007.0
20260505222035 50 158 4.0 6.0 0.00 0.01 0.01 69 1007.0
20260505221529 50 205 4.0 7.0 0.00 0.01 0.01 68 1007.0
20260505221023 50 168 3.0 7.0 0.00 0.01 0.01 70 1007.0
20260505220517 50 164 3.0 6.0 0.00 0.01 0.01 69 1007.0
20260505220011 50 173 4.0 6.0 0.00 0.01 0.01 71 1006.9
20260505215501 50 161 4.0 6.0 0.00 0.01 0.01 69 1006.9
20260505214959 50 142 4.0 6.0 0.00 0.01 0.01 69 1006.9
20260505214453 50 119 4.0 7.0 0.00 0.01 0.01 68 1007.0
20260505213944 50 130 4.0 6.0 0.00 0.01 0.01 67 1007.0
20260505213710 50 161 3.0 5.0 0.00 0.01 0.01 67 1007.0
20260505212931 51 148 3.0 5.0 0.00 0.01 0.01 66 1007.0
20260505212429 51 165 4.0 6.0 0.00 0.01 0.01 67 1007.0
20260505211919 51 205 4.0 6.0 0.00 0.01 0.01 65 1007.0
20260505211639 50 229 3.0 7.0 0.00 0.01 0.01 66 1006.9
20260505210911 50 179 4.0 7.0 0.00 0.01 0.01 64 1006.9
20260505210400 50 234 4.0 6.0 0.00 0.01 0.01 65 1006.9
20260505205900 50 199 4.0 7.0 0.00 0.01 0.01 66 1007.0
20260505205353 50 221 5.0 7.0 0.00 0.01 0.01 67 1007.0
20260505204847 50 246 5.0 7.0 0.00 0.01 0.01 65 1007.0
20260505204337 50 240 4.0 7.0 0.00 0.01 0.01 65 1007.0
20260505203831 49 239 3.0 6.0 0.00 0.01 0.01 66 1007.0
20260505203324 49 215 4.0 6.0 0.00 0.01 0.01 62 1007.0
20260505202823 49 231 4.0 6.0 0.00 0.01 0.01 64 1006.9
20260505202317 49 190 4.0 6.0 0.00 0.01 0.01 64 1006.9
20260505201811 49 215 2.0 6.0 0.00 0.01 0.01 64 1006.9
20260505201305 49 215 2.0 5.0 0.00 0.01 0.01 67 1007.0
20260505200754 48 316 2.0 4.0 0.00 0.01 0.01 65 1007.0
20260505200249 48 229 3.0 5.0 0.00 0.01 0.01 64 1007.0
20260505195742 48 255 3.0 6.0 0.00 0.01 0.01 66 1006.9
20260505195241 48 308 3.0 6.0 0.00 0.01 0.01 65 1006.9
20260505194735 47 290 2.0 6.0 0.00 0.01 0.01 65 1006.9
20260505194229 47 242 3.0 7.0 0.00 0.01 0.01 66 1006.8
20260505193719 47 289 4.0 8.0 0.00 0.01 0.01 66 1006.8
20260505193213 47 313 5.0 8.0 0.00 0.01 0.01 69 1006.8
20260505192711 47 308 6.0 11.0 0.00 0.01 0.01 68 1006.7
20260505192210 48 339 5.0 11.0 0.00 0.01 0.01 68 1006.7
20260505192148 48 319 5.0 8.0 0.00 0.01 0.01 69 1006.7
20260505191209 48 331 7.0 10.0 0.00 0.01 0.01 69 1006.4
20260505190930 48 314 8.0 10.0 0.00 0.01 0.01 69 1006.4
20260505190207 48 290 7.0 11.0 0.00 0.01 0.01 67 1006.4
20260505185706 48 302 8.0 11.0 0.00 0.01 0.01 70 1006.5
20260505185208 48 310 8.0 11.0 0.00 0.01 0.01 70 1006.5
20260505184706 48 315 9.0 13.0 0.00 0.01 0.01 70 1006.5
20260505184206 48 317 9.0 13.0 0.00 0.01 0.01 69 1006.5
20260505183708 48 327 8.0 12.0 0.00 0.01 0.01 70 1006.5
20260505183207 48 316 8.0 12.0 0.00 0.01 0.01 69 1006.5
20260505182707 49 310 6.0 11.0 0.00 0.01 0.01 68 1006.0
20260505182207 49 341 7.0 11.0 0.00 0.01 0.01 68 1006.0
20260505181707 49 313 7.0 11.0 0.00 0.01 0.01 68 1006.0
20260505181207 49 313 5.0 10.0 0.00 0.01 0.01 68 1005.9
20260505180707 49 340 4.0 9.0 0.00 0.01 0.01 70 1005.9
20260505180205 49 0 6.0 9.0 0.00 0.01 0.01 69 1005.9
20260505175659 48 271 6.0 9.0 0.00 0.01 0.01 71 1005.8
20260505175159 48 259 6.0 9.0 0.00 0.01 0.01 72 1005.8
20260505174657 48 304 6.0 9.0 0.00 0.01 0.01 71 1005.8
20260505174427 47 311 6.0 10.0 0.01 0.01 0.01 70 1005.6
20260505173657 47 260 6.0 10.0 0.01 0.01 0.01 74 1005.6
20260505173157 47 314 8.0 12.0 0.01 0.01 0.01 72 1005.6
20260505172657 47 291 9.0 12.0 0.01 0.01 0.01 72 1005.5
20260505172155 47 321 7.0 11.0 0.01 0.01 0.01 73 1005.5
20260505171655 47 317 5.0 10.0 0.01 0.01 0.01 72 1005.5
20260505171155 46 280 6.0 11.0 0.01 0.01 0.01 73 1005.5
20260505170655 46 253 7.0 11.0 0.01 0.01 0.01 73 1005.5
20260505170155 46 279 8.0 11.0 0.01 0.01 0.01 73 1005.5
20260505165655 46 300 9.0 12.0 0.01 0.01 0.01 73 1005.3
20260505165155 46 323 9.0 13.0 0.01 0.01 0.01 75 1005.3
20260505164655 45 309 11.0 18.0 0.01 0.01 0.01 76 1005.3
20260505164155 46 285 12.0 18.0 0.00 0.00 0.00 76 1005.4
20260505163653 46 306 12.0 16.0 0.00 0.00 0.00 75 1005.4
20260505163153 47 301 12.0 16.0 0.00 0.00 0.00 74 1005.4
20260505162653 47 277 12.0 16.0 0.00 0.00 0.00 73 1005.4
20260505162153 47 306 12.0 17.0 0.00 0.00 0.00 73 1005.4
20260505161653 48 302 11.0 17.0 0.00 0.00 0.00 73 1005.4
20260505161152 48 295 9.0 17.0 0.00 0.00 0.00 71 1005.1
20260505160654 48 0 9.0 15.0 0.00 0.00 0.00 72 1005.1
20260505160153 48 338 10.0 15.0 0.00 0.00 0.00 72 1005.1
20260505153152 49 307 14.0 21.0 0.00 0.00 0.00 70 1005.3
20260505152652 49 308 12.0 21.0 0.00 0.00 0.00 69 1004.8
20260505152152 51 304 10.0 17.0 0.00 0.00 0.00 67 1004.8
20260505151652 52 286 9.0 16.0 0.00 0.00 0.00 68 1004.8
20260505151144 52 313 10.0 19.0 0.00 0.00 0.00 69 1004.5
20260505150639 52 319 11.0 19.0 0.00 0.00 0.00 70 1004.5
20260505150129 51 309 12.0 18.0 0.00 0.00 0.00 71 1001.9
20260505140549 51 313 7.0 14.0 0.00 0.00 0.00 69 1003.2
20260505124952 46 347 13.0 18.0 0.00 0.00 0.00 75 1002.6
20260505124710 46 348 12.0 21.0 0.00 0.00 0.00 77 1002.6
20260505123952 46 346 11.0 21.0 0.00 0.00 0.00 78 1002.6
20260505123448 45 329 10.0 17.0 0.00 0.00 0.00 78 1002.6
20260505122936 45 347 9.0 18.0 0.00 0.00 0.00 79 1002.1
20260505122437 45 341 10.0 21.0 0.00 0.00 0.00 79 1002.1
20260505121936 45 339 10.0 21.0 0.00 0.00 0.00 79 1002.1
20260505121437 45 352 10.0 16.0 0.00 0.00 0.00 80 1001.8
20260505120937 45 327 10.0 16.0 0.00 0.00 0.00 80 1001.8
20260505120436 45 338 11.0 19.0 0.00 0.00 0.00 81 1001.8
20260505115937 45 312 11.0 19.0 0.00 0.00 0.00 80 1001.5
20260505115701 45 336 12.0 18.0 0.00 0.00 0.00 81 1001.5
20260505114936 45 321 13.0 18.0 0.00 0.00 0.00 80 1001.5
20260505114431 45 352 12.0 21.0 0.00 0.00 0.00 81 1001.3
20260505113920 45 344 11.0 21.0 0.00 0.00 0.00 82 1001.3
20260505113417 45 334 11.0 18.0 0.00 0.00 0.00 83 1001.3
20260505112916 45 343 11.0 19.0 0.00 0.00 0.00 84 1000.8
20260505112416 45 319 10.0 21.0 0.00 0.00 0.00 85 1000.8
20260505111917 46 326 10.0 21.0 0.00 0.00 0.00 85 1000.8
20260505111417 46 350 13.0 21.0 0.00 0.00 0.00 85 1000.5
20260505110917 46 333 10.0 21.0 0.00 0.00 0.00 86 1000.5
20260505110417 47 316 8.0 14.0 0.00 0.00 0.00 87 1000.5
20260505101637 51 311 15.0 22.0 0.00 0.01 0.00 88 998.9
20260505100907 52 299 12.0 18.0 0.00 0.01 0.00 87 998.9
20260505100357 52 303 10.0 15.0 0.00 0.01 0.00 87 998.9
20260505095856 53 295 9.0 15.0 0.00 0.01 0.00 86 998.9
20260505095357 53 248 9.0 16.0 0.00 0.01 0.00 86 998.9
20260505094857 54 272 10.0 16.0 0.00 0.01 0.00 86 998.9
20260505094356 54 295 10.0 16.0 0.00 0.01 0.00 86 998.4
20260505093856 55 261 11.0 16.0 0.00 0.01 0.00 85 998.4
20260505093356 55 282 11.0 16.0 0.00 0.01 0.00 85 998.4
20260505092857 56 244 10.0 16.0 0.00 0.01 0.00 84 997.9
20260505092357 57 286 11.0 17.0 0.00 0.01 0.00 84 997.9
20260505091853 57 252 13.0 17.0 0.00 0.01 0.00 83 997.9
20260505091353 58 247 12.0 17.0 0.00 0.01 0.00 82 997.7
20260505090853 58 223 11.0 17.0 0.00 0.01 0.00 82 997.7
20260505090352 58 265 11.0 17.0 0.00 0.01 0.00 82 997.7
20260505085853 58 236 9.0 17.0 0.00 0.01 0.00 83 997.8
20260505085353 58 246 9.0 13.0 0.00 0.01 0.00 82 997.8
20260505084853 58 238 10.0 13.0 0.00 0.01 0.00 82 997.8
20260505084613 58 234 10.0 13.0 0.00 0.01 0.00 82 997.3
20260505083853 58 215 9.0 13.0 0.00 0.01 0.00 82 997.3
20260505083347 58 238 10.0 13.0 0.00 0.01 0.00 82 997.3
20260505082835 58 210 9.0 13.0 0.00 0.01 0.00 82 997.4
20260505082322 58 210 9.0 12.0 0.00 0.01 0.00 82 997.4
20260505081813 59 205 10.0 13.0 0.00 0.01 0.00 82 997.4
20260505081313 59 215 10.0 15.0 0.00 0.01 0.00 81 997.5
20260505081038 59 215 11.0 15.0 0.00 0.01 0.00 81 997.5
20260505080308 59 198 11.0 15.0 0.00 0.01 0.00 81 997.5
20260505080041 59 210 11.0 15.0 0.00 0.01 0.00 81 997.6
20260505075308 59 210 11.0 15.0 0.00 0.01 0.00 81 997.6
20260505074808 59 210 11.0 14.0 0.00 0.01 0.00 81 997.6
20260505074308 59 205 11.0 14.0 0.00 0.01 0.00 81 997.8
20260505073806 59 210 11.0 14.0 0.00 0.01 0.00 81 997.8
20260505073306 59 205 11.0 16.0 0.00 0.01 0.00 81 997.8
20260505073035 59 201 12.0 17.0 0.00 0.01 0.00 81 997.9
20260505072525 59 222 12.0 17.0 0.00 0.01 0.00 80 997.9
20260505071804 59 220 13.0 20.0 0.00 0.01 0.00 80 997.9
20260505071304 59 201 13.0 20.0 0.00 0.01 0.00 80 998.0
20260505070757 59 205 12.0 16.0 0.00 0.01 0.00 80 998.0
20260505070256 59 233 12.0 16.0 0.00 0.01 0.00 80 998.0
20260505065750 60 205 12.0 16.0 0.00 0.01 0.00 80 998.3
20260505065240 60 205 13.0 16.0 0.00 0.01 0.00 80 998.3
20260505064739 60 196 14.0 19.0 0.00 0.01 0.00 80 998.3
20260505064233 60 199 13.0 19.0 0.00 0.01 0.00 80 998.4
20260505063726 60 194 12.0 18.0 0.00 0.01 0.00 80 998.4
20260505063216 60 210 13.0 18.0 0.00 0.01 0.00 79 998.4
20260505062709 60 196 14.0 18.0 0.00 0.01 0.00 79 998.4
20260505062204 60 198 14.0 20.0 0.00 0.01 0.00 79 998.4
20260505061703 60 210 15.0 21.0 0.00 0.01 0.00 79 998.4
20260505061156 60 205 16.0 24.0 0.00 0.01 0.00 79 998.4
20260505060650 60 205 18.0 24.0 0.00 0.01 0.00 78 998.4
20260505060138 60 205 18.0 23.0 0.00 0.01 0.00 78 998.5
20260505055533 60 199 18.0 25.0 0.00 0.01 0.00 78 998.5
20260505055253 60 205 18.0 25.0 0.00 0.01 0.00 78 998.5
20260505054521 60 219 18.0 25.0 0.00 0.01 0.00 79 998.4
20260505054241 60 196 19.0 25.0 0.00 0.01 0.00 78 998.4
20260505053515 60 205 18.0 25.0 0.00 0.01 0.00 79 998.4
20260505053006 60 196 17.0 24.0 0.00 0.01 0.00 79 998.4
20260505052454 60 191 16.0 23.0 0.00 0.01 0.00 79 998.4
20260505051953 60 205 15.0 22.0 0.00 0.01 0.00 79 998.4
20260505051441 60 191 17.0 21.0 0.00 0.01 0.00 79 998.4
20260505050941 60 210 16.0 23.0 0.00 0.01 0.00 79 998.4
20260505050435 60 199 16.0 23.0 0.00 0.01 0.00 79 998.4
20260505041349 59 192 18.0 26.0 0.00 0.01 0.00 79 998.4
20260505040847 59 180 19.0 26.0 0.00 0.01 0.00 79 998.4
20260505040347 60 189 19.0 26.0 0.00 0.01 0.00 79 998.4
20260505035845 60 186 20.0 27.0 0.00 0.01 0.01 79 998.4
20260505035345 60 196 20.0 27.0 0.00 0.01 0.01 79 998.4
20260505035110 60 197 20.0 32.0 0.00 0.01 0.01 79 998.4
20260505034344 60 205 20.0 32.0 0.00 0.01 0.01 78 998.5
20260505033844 60 205 20.0 28.0 0.00 0.01 0.01 78 998.5
20260505033345 60 225 20.0 27.0 0.00 0.01 0.01 78 998.5
20260505032845 60 201 21.0 28.0 0.00 0.01 0.01 77 998.6
20260505032345 60 210 20.0 28.0 0.00 0.01 0.01 77 998.6
20260505032107 61 205 21.0 31.0 0.00 0.01 0.01 76 998.6
20260505031606 61 215 22.0 31.0 0.00 0.01 0.01 76 998.7
20260505031107 61 215 22.0 31.0 0.00 0.01 0.01 76 998.7
20260505030345 61 183 21.0 31.0 0.00 0.01 0.01 75 998.7
20260505025844 61 192 20.0 29.0 0.00 0.01 0.01 75 998.8
20260505025337 61 186 20.0 29.0 0.00 0.01 0.01 75 998.8
20260505024831 61 201 22.0 34.0 0.00 0.01 0.01 75 998.8
20260505024323 62 196 22.0 34.0 0.00 0.01 0.01 75 998.9
20260505024040 62 205 20.0 30.0 0.00 0.01 0.01 74 998.9
20260505023311 61 160 16.0 30.0 0.00 0.01 0.01 74 998.9
20260505022805 61 183 14.0 23.0 0.00 0.01 0.01 74 998.6
20260505022259 61 161 14.0 23.0 0.00 0.01 0.01 74 998.6
20260505021751 61 168 15.0 22.0 0.00 0.01 0.01 74 998.6
20260505021245 61 190 15.0 22.0 0.00 0.01 0.01 74 998.6
20260505020735 61 169 15.0 20.0 0.00 0.01 0.01 73 998.6
20260505020232 61 162 15.0 21.0 0.00 0.01 0.01 73 998.6
20260505015732 61 168 13.0 21.0 0.00 0.01 0.01 73 998.8
20260505015232 61 175 12.0 17.0 0.00 0.01 0.01 72 998.8
20260505014733 62 183 12.0 19.0 0.00 0.01 0.01 72 998.8
20260505014232 62 182 12.0 19.0 0.00 0.01 0.01 71 998.7
20260505013732 62 175 12.0 17.0 0.00 0.01 0.01 71 998.7
20260505013233 62 175 12.0 18.0 0.00 0.01 0.01 70 998.7
20260505012732 63 173 13.0 19.0 0.00 0.01 0.01 69 998.6
20260505012232 63 167 13.0 19.0 0.00 0.01 0.01 69 998.6
20260505011733 63 160 12.0 17.0 0.00 0.01 0.01 68 998.6
20260505011233 63 177 13.0 21.0 0.00 0.01 0.01 67 998.5
20260505010730 64 186 13.0 21.0 0.00 0.01 0.01 67 998.5
20260505010231 64 200 14.0 20.0 0.00 0.01 0.01 67 998.5
20260505005730 64 167 15.0 22.0 0.00 0.01 0.01 66 998.6
20260505005231 64 205 16.0 24.0 0.00 0.01 0.01 66 998.6
20260505004730 64 171 16.0 24.0 0.00 0.02 0.01 66 998.6
20260505004229 64 173 15.0 22.0 0.00 0.02 0.01 66 998.6
20260505003725 64 183 16.0 23.0 0.00 0.02 0.01 66 998.6